Location: LDNL
(36.4545°S, 141.6685°E)
Time: 01:53:34
(UTC+10:00)

Courier 1B Rocket - Pass Details

Date: 02 June 2024
Orbit: 920 x 1201 km, 28.3° (Epoch: 13 May)

Event Time Altitude Azimuth Distance (km) Brightness Sun altitude
Exits shadow 04:50:40 20° 351° (N) 2,377 6.9 -32.8°
Drops below altitude 10° 04:54:47 10° 23° (NNE) 3,098 7.9 -31.9°
Sets 04:58:26 0° 37° (NE) 4,078 8.8 -31.2°
